sat.trackr.live / text

‹ back to catalog

STARLINK-6107

NORAD 56117 · 2023-046AA

PAYLOAD ACTIVE UNKNOWN

§ Identity

Operator
Country
US
Launch date
2023-03-29
Launch site
AFETR
Launch vehicle
Mass (kg)
RCS (m²)

Purposes: comms

External: N2YO · Heavens-Above · Gunter

§ Orbital elements

Epoch: 2026-09-20T23:10:58.355616Z

Period
94.27 min
Inclination
43.0019°
Eccentricity
0.0001324
Mean motion
15.27577076 rev/d
Perigee alt
482.1 km
Apogee alt
484.0 km
Semi-major
6,861.2 km
B*
8.7376e-6
RAAN
124.3052°
Arg perigee
264.3799°
Mean anomaly
95.6902°
Rev number
19,206

§ Raw data

STARLINK-61071 56117U 23046AA  26263.96595319 -.00000022  00000+0  87376-5 0  99912 56117  43.0019 124.3052 0001324 264.3799  95.6902 15.27577076192062

JSON: /api/v1/satellites/56117 · /tle

For live sub-satellite position, see the globe view (requires WebGL).

§ Visibility from observer

Set your observer location to see the next 7 days of passes ≥ 10°. The values pass through the URL so the page stays shareable.

No JS? Fill the form by hand. The geolocation button needs JavaScript.